LogoCoinalyze
    Ad-Free Version ホーム マーケット一覧 資金調達率一覧
    先物データ
    • 集計データ (コイン一覧)
    • 個別チャート
    • 全体チャート
    アラート
    TA
    Bitcoin Ethereum BNB Ripple Tron ZCash Dogecoin Monero Chainlink UNUS SED LEO Cardano Stellar Lumens Bitcoin Cash Litecoin Hedera Cronos Polkadot Ethereum Classic Algorand Dash Cosmos Quant VeChain Bitcoin SV BitTorrent Terra Decred Tezos The Graph Iota THETA NEO Decentraland MultiversX Chiliz Horizen Golem Basic Attention Token Qtum 0x DigiByte Beam RIF Token FTX Token FUNToken Holo Enjin Coin aelf Ontology Zilliqa Nano Ravencoin Verge Mask Network Siacoin WINk Status Waves IoTeX Power Ledger iExec RLC Steem Kyber Network Crystal Ark Lisk Ardor WOO Network IOST WAX Icon Storj Wanchain Loopring Bitcoin Diamond AdEx Bitcoin Gold Augur OmiseGO BitShares NEM MonaCoin Ren Komodo V Systems Nuls Mithril SOLVE Maker Aion EOS HedgeTrade Nebulas Bread Bytom Waltonchain Polygon Metaverse ETP TomoChain GXChain Fetch.ai MaidSafeCoin Fantom QASH
    注文する:
    その他
    • API
    • ローソク足パターン
    • 寄付する
    • お問い合わせ
    • サイトマップ
    • Privacy Policy
    • Disclaimer
    • Theme:
    日本語
    • English
    • Français
    • Русский
    • Deutsch
    • Türkçe
    • Nederlands
    • Português (BR)
    • Español
    • 한국어
    • 简体中文
     
    ログイン / サインアップ
    Markets/ Pepe/ PEPE to USDT/ PEPEUSDT Phemex
    Trades
    WL
    チャット
    統計
    ニュース
    ⦷
    AAA
    0.00000353 15925000.00000000 00:11:02
    0.00000353 20000000.00000000 00:10:38
    0.00000353 68135750.00000000 00:10:18
    0.00000352 189650000.00000000 00:10:13
    0.00000353 67608100.00000000 00:09:57
    0.00000352 6025000.00000000 00:09:36
    0.00000352 33323500.00000000 00:09:30
    0.00000353 71556250.00000000 00:09:01
    0.00000353 4700000.00000000 00:08:32
    0.00000353 13889450.00000000 00:08:30
    0.00000353 18302400.00000000 00:08:01
    0.00000353 2250000.00000000 00:07:31
    0.00000353 3000000.00000000 00:07:17
    0.00000353 7090000.00000000 00:07:13
    0.00000353 9839250.00000000 00:06:58
    0.00000353 14333000.00000000 00:06:51
    0.00000352 161162500.00000000 00:06:31
    0.00000352 45618750.00000000 00:06:08
    0.00000352 93750000.00000000 00:05:54
    0.00000353 71927500.00000000 00:05:33
    0.00000353 4911000.00000000 00:05:05
    0.00000352 6072500.00000000 00:04:45
    0.00000353 6530000.00000000 00:04:30
    0.00000353 32904875.00000000 00:04:28
    0.00000353 6377300.00000000 00:04:05
    0.00000353 3566625.00000000 00:04:02
    0.00000352 3746000.00000000 00:03:48
    0.00000352 12500000.00000000 00:03:46
    0.00000353 16250000.00000000 00:03:31
    0.00000352 8343210.00000000 00:03:09
    0.00000352 24167000.00000000 00:03:05
    0.00000352 2641650.00000000 00:02:46
    0.00000352 985240.00000000 00:02:35
    0.00000352 2731600.00000000 00:02:19
    0.00000353 10812500.00000000 00:02:00
    0.00000353 25000000.00000000 00:01:42
    0.00000352 43548667.00000000 00:01:32
    0.00000352 57658083.00000000 00:01:32
    0.00000353 56064393.00000000 00:01:17
    0.00000353 9538500.00000000 00:01:12
    0.00000353 13398000.00000000 00:01:12
    0.00000352 107142500.00000000 00:00:52
    0.00000352 133500000.00000000 00:00:23
    0.00000352 98185125.00000000 23:59:57
    0.00000352 35024744.00000000 23:59:42
    0.00000352 42860000.00000000 23:59:38
    0.00000353 91859000.00000000 23:59:33
    0.00000352 214700000.00000000 23:59:21
    0.00000352 15177534.00000000 23:58:52
    0.00000352 27447466.00000000 23:58:52
    0.00000353 38058557.00000000 23:58:46
    0.00000353 92097200.00000000 23:58:41
    0.00000352 15765000.00000000 23:58:17
    0.00000352 38000000.00000000 23:57:55
    0.00000352 99750000.00000000 23:57:50
    0.00000352 241864781.00000000 23:57:34
    0.00000353 162945000.00000000 23:57:06
    0.00000352 46050000.00000000 23:56:51
    0.00000352 2712500.00000000 23:56:33
    0.00000352 4187500.00000000 23:56:28
    0.00000352 6151000.00000000 23:56:01
    0.00000352 15312500.00000000 23:55:54
    0.00000353 60078625.00000000 23:55:30
    0.00000352 29327250.00000000 23:55:01
    0.00000353 47426428.00000000 23:54:37
    0.00000353 36307769.00000000 23:54:37
    0.00000353 97988365.00000000 23:54:07
    0.00000353 95571271.00000000 23:53:55
    0.00000353 46000000.00000000 23:53:28
    0.00000353 62213756.00000000 23:53:15
    0.00000352 9259375.00000000 23:52:48
    0.00000353 6300000.00000000 23:52:20
    0.00000353 2026250.00000000 23:52:03
    0.00000353 9498750.00000000 23:51:55
    0.00000353 13953570.00000000 23:51:37
    0.00000352 31250000.00000000 23:51:29
    0.00000352 15300000.00000000 23:51:10
    0.00000353 74296980.00000000 23:51:03
    0.00000353 29000000.00000000 23:50:43
    0.00000353 8777250.00000000 23:50:16
    0.00000352 4142487.00000000 23:50:13
    0.00000352 576500.00000000 23:49:52
    0.00000353 1112500.00000000 23:49:45
    0.00000352 1530050.00000000 23:49:33
    0.00000352 1328600.00000000 23:49:23
    0.00000352 768700.00000000 23:49:16
    0.00000352 647270.00000000 23:49:09
    0.00000352 3515600.00000000 23:49:02
    0.00000352 3405000.00000000 23:48:45
    0.00000352 3280180.00000000 23:48:40
    0.00000353 7363000.00000000 23:48:26
    0.00000353 10634375.00000000 23:48:14
    0.00000352 22089123.00000000 23:47:56
    0.00000352 49893377.00000000 23:47:56
    0.00000352 31392500.00000000 23:47:30
    0.00000353 36441000.00000000 23:47:24
    0.00000353 1103250.00000000 23:46:55
    0.00000353 3211340.00000000 23:46:53
    0.00000352 3995000.00000000 23:46:40
    0.00000353 12178000.00000000 23:46:32
    ログアウト
    AAA
    ヘルプ
    🙂 🤣 😎 🤗 😛 😉 😜 🤑 🤔 😑 😴 😕 🙃 😲 😇 🙁 😢 😬 😟 😠 🕺 🏃 💪 ✌ 👌 👍 👎 👏 👋 🤝 🍺 🍻 🐋 🐟 🦈 🗽 🚄 ✈ 🛑 🚀 🏦 🌚 ⭐ 🌞 ⚡ 🏆 💰 💲 🔨 ❓ ❗ 💯 🔶 🏁
    ☺
    ログイン または サインアップ してチャット
    24時間
    変化
    -4.59%
    出来高
    937,525,809,346
    最高値
    0.00000372
    最安値
    0.00000348
    7日間
    変化
    -4.34%
    出来高
    5,958,042,237,302
    最高値
    0.00000387
    最安値
    0.00000335
    30日間
    変化
    +22.57%
    出来高
    28,363,458,629,780
    最高値
    0.00000456
    最安値
    0.00000255
    DOGE, SHIB, PEPE, or Something Else: Which Meme Coin Can Make History in September? (3 AIs Weigh In)
    "DOGE remains the most likely to record the largest move in dollar terms and lead the entire sector," ChatGPT stated.
    cryptopotato.com
    Sept 3, 2026 00:41
    Pepe price rallies 25% as whale demand and futures interest surge
    Key takeaways Pepe has gained 25% this week, including a combined 22% advance over the previous two days. Seven whale transactions worth more than $1 million each occurred Thursday, the highest...
    coinjournal.net
    Aug 21, 2026 08:41
    PEPE Supply on Exchanges Just Took a Massive Hit – What’s Next?
    A drop in PEPE exchange balances has added to bullish expectations despite muted trader interest.
    cryptopotato.com
    Aug 6, 2026 20:02
    PEPE Exchange Outflows Hit Nearly 2-Year High as Whales Accumulate
    Pepe (PEPE) recorded its largest single-day exchange outflow since November 2024, with 4.54 trillion tokens leaving trading platforms, signaling that holders are moving supply away from immediate...
    beincrypto.com
    Aug 6, 2026 04:57
    Meme Coin Based on White House Shooter Conspiracy Rallies 320%
    $HENRY surged 300% after a 2023 Pepe tweet appeared to name the White House shooter, fueling a viral time-travel meme. The post Meme Coin Based on White House Shooter Conspiracy Rallies 320%...
    beincrypto.com
    Apr 27, 2026 16:11
    PEPE surges 4% as market sentiment improves, eyes Key resistance breakout
    Key takeaways Pepe extends gains on Wednesday, stretching its rally from the 50-day EMA. Derivatives data show heightened retail activity as risk-on sentiment returns to the market. Pepe (PEPE) is...
    coinjournal.net
    Apr 22, 2026 11:44
    Why The PEPE Price Could Stage A 55X Rally To Reach New $0.0001 ATH
    The PEPE price has now started to edge back into bullish conversations after the recent inflows into the crypto market. The last time PEPE’s weekly chart printed the kind of structure now...
    newsbtc.com
    Apr 21, 2026 15:30
    Pepe (PEPE) surges 9%, drawing interest from whales
    Key takeaways PEPE is up 9% in the last 24 hours, making it one of the best performers among the top 50 cryptocurrencies by market cap. The rally comes amid renewed interest from whales and retail...
    coinjournal.net
    Apr 16, 2026 07:40
    Murad Says SPX6900 (SPX) Is Primed for a Rally — Is He Right This Time?
    Crypto influencer Murad Mahmudov claims SPX6900 (SPX) is stabilizing at the same market cap level where Dogecoin (DOGE) and Pepe (PEPE) consolidated before their explosive rallies. The...
    beincrypto.com
    Apr 5, 2026 21:36
    The Shiba Inu Of This Cycle: Analyst Shares Why It Is Better To Buy PEPE Now
    In the bull market cycle of 2021-2022, the Shiba Inu meme coin made waves in a way that changed the face of meme coins forever. This came after Dogecoin’s initial 36,000% rally, and Shiba Inu...
    newsbtc.com
    Apr 4, 2026 07:30
    PEPE Explodes by 18% Amid Altcoin Rally, BTC Tapped $74K: Market Watch
    The frog-themed meme coin is today's biggest gainer, followed by TAO, DOT, and BONK.
    cryptopotato.com
    Mar 16, 2026 10:56
    Should PEPE traders brace for volatility as short squeeze potential builds?
    The memecoin market has seen its collective market capitalization drop by 48% over the past year, and 6.9% over the past month, according to CoinMarketCap. According to Glassnode, the memecoin...
    ambcrypto.com
    Mar 7, 2026 18:00
    チャットでコマンドを入力するだけです。 nick1を実際のニックネームに置き換えてください
    • /ignore nick1 チャットユーザーを無視する
    • /unignore nick1 チャットユーザーを無視しない
    • /ignorelist 無視したチャットユーザーを表示する